Regional Weather Roundup
Issued by NWS

Home | Current Version | Previous Version | Text Only | Print | Product List | Glossary Off
Versions: 1 2 3 4 5 6 7 8 9 10 11 12 13 14 15 16 17 18 19 20 21 22 23 24 25 26 27 28 29 30 31 32 33 34 35 36 37 38 39 40 41 42 43 44 45 46 47 48 49 50

376
ASUS44 KMEG 240810
RWRTN
TENNESSEE HOURLY STATE WEATHER ROUNDUP
NATIONAL WEATHER SERVICE MEMPHIS TN
300 AM CDT SUN SEP 24 2017

TNZ002-004-019-021-049-052-054-088>092-240900-
WEST TENNESSEE

CITY           SKY/WX    TMP DP  RH WIND       PRES   REMARKS
MEMPHIS INTL   CLEAR     76  69  79 E3        29.97S
NWS MEMPHIS      N/A     71 N/A N/A MISG        N/A
JACKSON        CLEAR     70  70 100 CALM      30.00S FOG
DYERSBURG      CLEAR     70  69  97 CALM      29.99S
SOMERVILLE     CLEAR     70  68  94 CALM      29.97S FOG
COVINGTON      CLEAR     68  66  94 CALM      29.98S
BOLIVAR        CLEAR     68  66  94 CALM      29.99S FOG
PARIS          CLEAR     70  68  94 E3        30.00S
HUNTINGDON     CLEAR     68  68 100 CALM      29.99S
LEXINGTON      CLEAR     68  68 100 CALM      30.00R FOG
SELMER         CLEAR     72  68  88 CALM      29.99S
SAVANNAH       CLEAR     68  68 100 CALM      29.99S
$$

TNZ008-025-027-028-033-062-065-066-240900-
NORTH MIDDLE TENNESSEE

CITY           SKY/WX    TMP DP  RH WIND       PRES   REMARKS
NASHVILLE      CLEAR     70  68  93 CALM      30.02S
PORTLAND       PTCLDY    64  64 100 CALM      30.03S FOG
CLARKSVILLE    CLEAR     67  65  93 CALM      30.02S
SMYRNA           N/A    N/A N/A N/A MISG        N/A  HAZE
COOKEVILLE     FOG       63  63 100 CALM      30.05S VSB 0
GALLATIN       CLEAR     66  64  94 CALM      30.05S
CROSSVILLE     CLEAR     62  61  96 CALM      30.10S FOG
$$

TNZ061-075-076-078-094-096-097-240900-
SOUTH MIDDLE TENNESSEE

CITY           SKY/WX    TMP DP  RH WIND       PRES   REMARKS
FAYETTEVILLE   CLEAR     66  66 100 CALM      30.03S FOG
TULLAHOMA      CLEAR     64  63  94 CALM      30.06R
WINCHESTER     CLEAR     64  64 100 CALM      30.05S
MCMINNVILLE      N/A     64  64 100 CALM      30.06R VSB 1/2
COLUMBIA       CLEAR     68 N/A N/A CALM      30.00S
SHELBYVILLE    CLEAR     66  66 100 CALM      30.03S
$$

TNZ017-018-042-046-047-240900-
NORTHEAST TENNESSEE

CITY           SKY/WX    TMP DP  RH WIND       PRES   REMARKS
TRI CITIES     CLEAR     57  57 100 CALM      30.13R
ELIZABETHTON   CLEAR     63  57  82 CALM      30.14R
$$

TNZ012-013-036-069-073-074-240900-
CENTRAL EAST TENNESSEE

CITY           SKY/WX    TMP DP  RH WIND       PRES   REMARKS
KNOXVILLE      CLOUDY    68  64  87 E3        30.06R
DOWNTOWN KNOXV MOCLDY    68  68 100 CALM      30.06R
GATLINBURG     CLEAR     64  61  88 CALM      30.07R
MORRISTOWN     PTCLDY    70  63  78 E6        30.08R
JACKSBORO      CLEAR     64  64 100 CALM      30.11S
$$

TNZ083-085-099-240900-
SOUTHEAST TENNESSEE

CITY           SKY/WX    TMP DP  RH WIND       PRES   REMARKS
CHATTANOOGA    CLEAR     67  65  93 CALM      30.05S
DAYTON         SUNNY     66  66 100 CALM      30.05S FOG
$$

SKY/WX REPORTED AS FAIR MEANS FEW OR NO CLOUDS BELOW
12 THOUSAND FEET.





USA.gov is the U.S. government's official web portal to all federal, state and local government web resources and services.